TIME,DELAY(SENSOR),PRES,OXYGEN,RAWTEMP,T(OPTODE),TCPHASE,FLUOR,BETA(BETA700),BETA(BETA412),BETA(BETA440),CDOM,C(CSC),ED(ED412.40),ED(ED444.00),ED(ED489.70),ED(ED554.30),LU(LU411.80),LU(LU443.40),LU(LU489.60),LU(LU554.10),COMP,TILTX,TILTY,CHECK
1365047910,5805,848.3900146484375000,43.2540893554687500,657.8615722656250000,4.6983470916748050,54.4880790710449200,53,103,87,79,79,14966,2147751396,2147426477,2148013385,2147872749,2147638921,2147059474,2148258422,2147197065,2916,4,13,50120
1365051506,5808,907.8499755859375000,47.2734794616699200,664.9282226562500000,4.4655909538269040,53.9907493591308600,53,100,83,80,81,14958,2147756233,2147424274,2148011227,2147872868,2147639360,2147059620,2148265417,2147194916,504,4,13,7264
1365055106,5807,912.7899780273438000,47.2322502136230500,666.3457031250000000,4.4188370704650880,54.0080604553222660,52,100,87,77,80,14970,2147757741,2147424155,2148008621,2147874057,2147639981,2147056960,2148259675,2147193179,409,4,13,4889
1365058706,5810,937.1699829101562000,47.6775207519531250,669.9464111328125000,4.2999691963195800,53.9927101135253900,53,98,87,79,80,14967,2147756032,2147426660,2148013028,2147871561,2147641856,2147060260,2148261842,2147197732,290,4,13,64181
1365062306,5810,942.9299926757812000,47.7888107299804700,670.0798950195312000,4.2955570220947270,53.9811592102050800,52,98,86,78,80,14967,2147753426,2147425508,2148014116,2147874578,2147641901,2147056484,2148257609,2147192987,117,4,13,48519
1365065906,5807,952.4400024414062000,47.7078514099121100,670.0557861328125000,4.2963538169860840,53.9930000305175800,52,100,87,81,80,14967,2147757339,2147424530,2148013458,2147875510,2147639798,2147058989,2148260288,2147199542,2820,4,13,12998
1365069506,5810,974.9099731445312000,48.3087196350097660,672.0598754882812000,4.2301249504089355,53.9302406311035160,53,98,86,79,80,14960,2147756489,2147425060,2148012379,2147874102,2147642038,2147059968,2148263140,2147195556,2931,4,13,27566
1365073106,5808,973.9899902343750000,48.9589195251464840,673.3228759765625000,4.1883659362792970,53.8548889160156250,52,99,86,79,80,14954,2147754916,2147426121,2148015405,2147873984,2147641709,2147061193,2148261906,2147196169,264,4,13,6683
1365076706,5807,976.2700195312500000,48.4990501403808600,673.4481811523438000,4.1842231750488280,53.9233894348144500,52,100,88,79,81,14953,2147757714,2147424850,2148011556,2147875693,2147641993,2147055725,2148262656,2147196909,3343,4,13,48042
1365080306,5808,984.5700073242188000,48.5569801330566400,673.3206787109375000,4.1884379386901855,53.9130897521972660,53,98,85,80,81,14949,2147755986,2147427876,2148011419,2147874304,2147641856,2147058212,2148263186,2147196214,3486,4,13,3347
1365083906,5808,989.0399780273438000,49.1291313171386700,672.0239868164062000,4.2313117980957030,53.8167304992675800,52,97,88,78,82,14949,2147756973,2147425581,2148010806,2147872576,2147642852,2147060598,2148261174,2147196388,3357,4,13,61260
1365087506,5807,987.5999755859375000,48.2753295898437500,672.0042114257812000,4.2319698333740230,53.9320297241210940,53,99,84,78,80,14950,2147757888,2147424118,2148012416,2147875520,2147643181,2147056283,2148258011,2147196288,3469,4,13,40501
1365091106,5808,980.1400146484375000,48.6658401489257800,672.4671020507812000,4.2166647911071780,53.8846397399902340,53,99,84,78,80,14948,2147756717,2147427145,2148009773,2147876050,2147641874,2147059382,2148258861,2147199369,3225,4,13,23180
1365094706,5808,979.0200195312500000,48.4368782043457000,673.6754760742188000,4.1767058372497560,53.9368896484375000,53,99,87,79,81,14899,2147756964,2147428178,2148010944,2147875913,2147640539,2147058953,2148262774,2147195721,141,4,13,63328
1365098306,5807,985.5399780273438000,48.5472717285156250,673.6776123046875000,4.1766381263732910,53.9182395935058600,53,97,87,79,79,14900,2147758180,2147426505,2148009289,2147873280,2147642011,2147060260,2148265718,2147200045,3595,4,13,31962
1365101906,5810,982.1400146484375000,48.3146286010742200,673.6209716796875000,4.1785092353820800,53.9457092285156250,52,98,86,79,81,14903,2147757046,2147426450,2148010148,2147872000,2147639945,2147059830,2148262893,2147198427,3293,4,13,15402
1365105506,5807,988.0599975585938000,48.5200195312500000,673.1400756835938000,4.1944122314453125,53.9134101867675800,52,97,88,79,80,14902,2147758454,2147426331,2148011145,2147873581,2147640091,2147059236,2148259803,2147199021,3161,4,13,6992
1365109106,5811,993.0900268554688000,48.3623390197753900,672.0219116210938000,4.2313861846923830,53.9259605407714840,52,99,88,78,80,14901,2147755693,2147424850,2148010112,2147872109,2147641444,2147055478,2148261357,2147200749,260,4,13,53632
1365112706,5808,987.2100219726562000,47.9001884460449200,672.5532226562500000,4.2138180732727050,53.9963684082031250,51,99,88,79,81,14904,2147757120,2147426221,2148010148,2147872978,2147638336,2147058285,2148259803,2147196406,309,4,13,15146
1365116306,5808,985.5000000000000000,47.9465599060058600,673.6162719726562000,4.1786651611328125,54.0029106140136700,53,102,84,78,80,14903,2147756160,2147423478,2148011373,2147876516,2147638217,2147053357,2148258852,2147194614,3433,4,13,46453
1365119906,5808,986.7199707031250000,50.6314582824707000,674.2061157226562000,4.1591548919677730,53.6367111206054700,52,98,85,79,81,14905,2147757156,2147428745,2148012187,2147875876,2147644626,2147053686,2148265929,2147198418,3468,4,13,20741
1365123506,5808,999.3400268554688000,49.8872718811035160,673.4329223632812000,4.1847310066223145,53.7321586608886700,52,99,87,79,79,14903,2147755702,2147427236,2148011830,2147876086,2147640795,2147058843,2148261421,2147196800,2914,4,13,21704
1365127106,5810,1000.0800170898438000,48.1625709533691400,671.4091796875000000,4.2516331672668460,53.9456710815429700,53,99,88,80,80,14897,2147757403,2147427858,2148009088,2147873270,2147642020,2147054820,2148259840,2147197878,724,4,13,38419
1365130706,5813,1002.2800292968750000,47.6549682617187500,671.9603881835938000,4.2334160804748535,54.0192909240722660,52,98,92,78,79,14895,2147758509,2147425133,2148009572,2147869750,2147639469,2147057270,2148260443,2147196105,424,4,13,26712
1365134306,5811,998.2399902343750000,48.1396713256835940,672.1682128906250000,4.2265467643737790,53.9575691223144500,52,98,88,79,79,14896,2147755318,2147423387,2148011236,2147872640,2147641563,2147059602,2148260800,2147196589,473,4,13,60660
1365137906,5804,996.0800170898438000,48.0648307800293000,672.2117919921875000,4.2251048088073730,53.9671211242675800,52,96,87,79,80,14893,2147757312,2147425792,2148011154,2147872667,2147644388,2147057462,2148264768,2147192758,647,4,13,7875
1365141506,5810,994.0800170898438000,48.3994903564453100,672.3956909179688000,4.2190270423889160,53.9249000549316400,52,98,87,79,80,14892,2147755209,2147423149,2148009993,2147875364,2147641901,2147056530,2148261897,2147197485,3445,4,13,46134
1365145106,5808,996.5100097656250000,48.0400810241699200,672.2877807617188000,4.2225928306579590,53.9726905822753900,53,100,85,78,79,14890,2147755446,2147426715,2148013129,2147875291,2147641069,2147058377,2148259574,2147197385,240,4,13,3707
1365148706,5809,989.9199829101562000,48.7528991699218750,672.4479980468750000,4.2172970771789550,53.8745994567871100,53,100,87,79,80,14894,2147758409,2147425636,2148010185,2147872713,2147641371,2147061403,2148263277,2147197622,101,4,13,35952
1365152306,5808,989.6900024414062000,49.8154983520507800,672.8129882812500000,4.2052268981933590,53.7327308654785160,52,98,85,78,80,14893,2147757952,2147423652,2148010157,2147876461,2147640246,2147052717,2148265152,2147195766,488,4,13,36297
1365155906,5811,990.8699951171875000,49.6065788269043000,673.2860717773438000,4.1895828247070310,53.7630691528320300,53,99,86,78,81,14894,2147758418,2147425042,2148011574,2147870144,2147640566,2147059757,2148260169,2147197769,64,4,13,17841
1365159506,5809,996.4299926757812000,49.8958015441894500,672.6475830078125000,4.2106947898864750,53.7182502746582000,52,100,84,80,80,14850,2147753499,2147425856,2148010532,2147875172,2147639515,2147060745,2148261869,2147199890,110,4,13,37300
1365163106,5806,988.2199707031250000,49.1023292541503900,673.5787963867188000,4.1799049377441410,53.8395385742187500,53,109,86,78,80,14846,2147756306,2147424621,2148010258,2147875090,2147638226,2147058212,2148263296,2147195812,385,4,13,10332
1365166706,5806,987.4000244140625000,49.1748504638671900,674.1196899414062000,4.1620121002197270,53.8326301574707000,52,99,86,79,80,14850,2147759689,2147424000,2148009243,2147876571,2147643099,2147059483,2148259282,2147197046,3310,4,13,34897
1365170306,5809,987.6900024414062000,49.0526199340820300,674.9193725585938000,4.1355547904968260,53.8639907836914060,52,97,86,78,80,14852,2147759460,2147421321,2148011446,2147874121,2147640813,2147056713,2148262619,2147196388,365,4,13,18450
1365173906,5808,993.0999755859375000,48.6983909606933600,674.1516113281250000,4.1609549522399900,53.9052696228027340,52,98,87,79,80,14844,2147760429,2147423853,2148012498,2147872557,2147638217,2147058605,2148256868,2147193645,283,4,13,39144
1365177506,5806,991.8499755859375000,49.6561698913574200,672.9500732421875000,4.2006969451904300,53.7509193420410160,52,100,88,80,80,14845,2147755922,2147425965,2148010550,2147872987,2147642733,2147058569,2148261568,2147199332,3479,4,13,28
1365181106,5809,993.6900024414062000,50.1304206848144500,672.5582275390625000,4.2136549949646000,53.6849288940429700,52,102,88,80,79,14845,2147755163,2147423433,2148009252,2147873115,2147635812,2147059501,2148258093,2147193901,278,4,13,35814
1365184706,5808,985.6799926757812000,48.9196395874023440,673.4719238281250000,4.1834387779235840,53.8597297668457000,53,98,84,79,81,14848,2147758217,2147425280,2148011648,2147874002,2147638902,2147053769,2148265280,2147195529,3475,4,13,61117
1365188306,5810,995.1500244140625000,50.0308990478515600,674.1870727539062000,4.1597838401794430,53.7209281921386700,53,99,84,79,82,14843,2147756553,2147425188,2148011922,2147873993,2147639542,2147053568,2148268077,2147199945,3409,4,13,38856
1365191906,5810,996.0300292968750000,49.8039894104003900,674.3948974609375000,4.1529078483581540,53.7524299621582000,52,99,88,79,80,14843,2147757312,2147423954,2148013778,2147877056,2147642925,2147058587,2148255113,2147197769,165,4,13,46676
1365192656,5805,998.5800170898438000,50.0638809204101560,674.2294921875000000,4.1583809852600100,53.7133483886718750,52,100,86,80,79,14935,2147757147,2147426349,2148014921,2147872091,2147641398,2147059739,2148263945,2147197915,279,4,13,7670
